Weather History for KASD - February, 2014

Change the Weather History Date:

Monday, February 17, 2014

  Actual Average (KNEW) Record (KNEW)
Temperature  
Mean Temperature 65 °F 57 °F  
Max Temperature 75 °F 66 °F 80 °F (2000)
Min Temperature 55 °F 48 °F 28 °F (1996)
Degree Days  
Heating Degree Days 0 9  
Month to date heating degree days 171  
Since 1 July heating degree days 1027  
Cooling Degree Days 0 1  
Month to date cooling degree days 17  
Year to date cooling degree days 33  
Growing Degree Days 15 (Base 50)    
Moisture  
Dew Point 58 °F    
Average Humidity 76    
Maximum Humidity 93    
Minimum Humidity 52    
Precipitation  
Precipitation 0.00 in 0.19 in 2.67 in (1992)
Month to date precipitation 3.36  
Year to date precipitation 8.51  
Snow  
Snow 0.00 in - - ()
Month to date snowfall  
Since 1 July snowfall  
Snow Depth -    
Sea Level Pressure  
Sea Level Pressure 30.12 in    
Wind  
Wind Speed 6 mph (SSW)    
Max Wind Speed 12 mph    
Max Gust Speed -    
Visibility 10 miles    
Events      
T = Trace of Precipitation, MM = Missing Value Source: NWS Daily Summary

Daily Weather History Graph

Daily Weather History Graph

Search for Another Location

Airport or City:

Trip Planner

Search our weather history database for the weather conditions in past years. The results will help you decide how hot, cold, wet, or windy it might be!

Date:

Astronomy

Feb. 17, 2014 Rise Set
Actual Time 6:37 AM CST 5:49 PM CST
Civil Twilight 6:13 AM CST 6:13 PM CST
Nautical Twilight 5:45 AM CST 6:41 PM CST
Astronomical Twilight 5:17 AM CST 7:09 PM CST
Moon 8:28 PM CST (2/17) 7:51 AM CST (2/17)
Length of Visible Light 12h 00m
Length of Day
11h 11m
Waning Gibbous, 93% of the Moon is Illuminated
Feb 17
Waning Gibbous
Feb 22
Last Quarter
Mar 1
New
Mar 8
First Quarter
Mar 16
Full

Hourly Weather History & Observations

Time (CST) Temp. Dew Point Humidity Pressure Visibility Wind Dir Wind Speed Gust Speed Precip Events Conditions
12:53 AM 55.0 °F 52.0 °F 89% 30.12 in 9.0 mi South 4.6 mph - N/A   Clear
1:53 AM 55.9 °F 54.0 °F 93% 30.11 in 10.0 mi South 4.6 mph - N/A   Overcast
2:53 AM 59.0 °F 55.9 °F 90% 30.11 in 10.0 mi South 4.6 mph - N/A   Overcast
3:53 AM 59.0 °F 55.9 °F 90% 30.10 in 10.0 mi South 4.6 mph - N/A   Overcast
4:53 AM 60.1 °F 55.9 °F 86% 30.11 in 10.0 mi South 5.8 mph - N/A   Overcast
5:53 AM 60.1 °F 55.9 °F 86% 30.12 in 10.0 mi SSE 5.8 mph - N/A   Overcast
6:53 AM 60.1 °F 57.0 °F 90% 30.13 in 10.0 mi South 5.8 mph - N/A   Overcast
7:53 AM 62.1 °F 57.9 °F 86% 30.14 in 10.0 mi South 10.4 mph - N/A   Overcast
8:53 AM 66.0 °F 59.0 °F 78% 30.15 in 10.0 mi SSE 11.5 mph - N/A   Overcast
9:53 AM 69.1 °F 60.1 °F 73% 30.15 in 10.0 mi South 10.4 mph - N/A   Overcast
10:53 AM 71.1 °F 59.0 °F 66% 30.15 in 10.0 mi South 9.2 mph - N/A   Mostly Cloudy
11:53 AM 73.0 °F 57.0 °F 57% 30.15 in 10.0 mi SSW 8.1 mph - N/A   Overcast
12:53 PM 73.9 °F 57.9 °F 57% 30.12 in 10.0 mi SSW 9.2 mph - N/A   Partly Cloudy
1:53 PM 73.9 °F 57.9 °F 57% 30.10 in 10.0 mi SW 5.8 mph - N/A   Overcast
2:53 PM 75.9 °F 57.9 °F 54% 30.08 in 10.0 mi SSW 11.5 mph - N/A   Scattered Clouds
3:53 PM 75.9 °F 57.0 °F 52% 30.08 in 10.0 mi WSW 11.5 mph - N/A   Partly Cloudy
4:53 PM 73.9 °F 57.9 °F 57% 30.09 in 10.0 mi SW 5.8 mph - N/A   Overcast
5:53 PM 71.1 °F 57.9 °F 63% 30.09 in 10.0 mi Calm Calm - N/A   Mostly Cloudy
6:53 PM 69.1 °F 57.9 °F 68% 30.10 in 10.0 mi SSW 4.6 mph - N/A   Mostly Cloudy
7:53 PM 66.9 °F 61.0 °F 81% 30.12 in 10.0 mi SSW 4.6 mph - N/A   Partly Cloudy
8:53 PM 66.0 °F 61.0 °F 84% 30.13 in 10.0 mi SSW 5.8 mph - N/A   Clear
9:53 PM 64.9 °F 60.1 °F 84% 30.14 in 10.0 mi SSW 4.6 mph - N/A   Clear
10:53 PM 64.0 °F 60.1 °F 87% 30.14 in 9.0 mi South 4.6 mph - N/A   Partly Cloudy
11:50 PM 66.2 °F 60.8 °F 83% 30.14 in 7.0 mi SW 4.6 mph - N/A   Mostly Cloudy
11:53 PM 64.0 °F 62.1 °F 93% 30.14 in 7.0 mi SW 4.6 mph - N/A   Mostly Cloudy